Back to catalog

ORBCOMM FM 1

AliveCommunicationsVLEO
NORAD 23545·PAYLOAD·🇺🇸 United States

Launched Apr 3, 1995 from Vandenberg Space Force Base

Loading…

Next Passes (next 24 hours)

TLE

FreshSource: Space-Track

Epoch: Sep 14, 2026, 07:33 UTC

1 23545U 95017A   26257.31501941  .00004065  00000-0  36302-3 0  9999
2 23545  69.9627  15.2802 0005121 317.1484  42.9275 14.96704484680320

Track ORBCOMM FM 1 in real time with AllMySat

Download on the App Store